Hourly Weather Roundup
Issued by NWS Central Illinois

Home | Current Version | Previous Version | Text Only | Print | Product List | Glossary On
Versions: 1 2 3 4 5 6 7 8 9 10 11 12 13 14 15 16 17 18 19 20 21 22 23 24 25 26 27 28 29 30 31 32 33 34 35 36 37 38 39 40 41 42 43 44 45 46 47 48 49 50
000
NZUS43 KILX 252110
HWRILX

AREA WEATHER ROUNDUP
NATIONAL WEATHER SERVICE, LINCOLN IL
400 PM CDT SAT MAR 25 2017


CITY           SKY/WX    TMP DP  RH WIND       PRES   REMARKS
BLOOMINGTON    LGT RAIN  59  57  93 E12       29.92S
CHAMPAIGN      CLOUDY    68  52  56 S18G29    29.91S
DECATUR        CLOUDY    64  55  72 S13       29.89S
EFFINGHAM      LGT RAIN  65  58  76 SE8       29.91F
FLORA          CLOUDY    65  58  76 S12       29.90F
GALESBURG      CLOUDY    61  55  83 SE7       29.85S
JACKSONVILLE   CLOUDY    61  57  87 S9        29.85S
LACON          RAIN      58  57  97 S3        29.90S
LAWRENCEVILLE  CLOUDY    70  54  56 S16       29.93S
LITCHFIELD     LGT RAIN  59  58  94 SE9       29.86S
$$


CITY           SKY/WX    TMP DP  RH WIND       PRES   REMARKS
LINCOLN        RAIN      63  60  92 E7        29.89S
MACOMB         CLOUDY    60  55  83 SE12      29.87S
MATTOON        CLOUDY    65  55  70 S12       29.90F
MT CARMEL AP   CLOUDY    71  52  51 S14       29.92S
OLNEY-NOBLE AP LGT RAIN  63  63 100 S7        29.92F
PARIS          CLOUDY    69  55  60 S15G24    29.93F
PEORIA           N/A     60  58  92 MISG      29.89S
PONTIAC        CLOUDY    61  59  93 SE3       29.94S
RANTOUL        CLOUDY    68  56  65 S13       29.91F
SPRINGFIELD    RAIN      62  58  86 SE6       29.87S FOG
TAYLORVILLE    DRIZZLE   63  57  82 S16       29.87F
$$

...REGIONAL REPORTS...


CITY           SKY/WX    TMP DP  RH WIND       PRES   REMARKS
CHICAGO O`HARE LGT RAIN  44  41  89 N12       29.99F FOG
KANKAKEE       DRIZZLE   59  58  95 S5        29.96S
MOLINE         CLOUDY    54  50  86 NE13      29.88F
MOUNT STERLING CLOUDY    59  55  87 SE9       29.84R
MOUNT VERNON   CLOUDY    62  59  90 SE5       29.89F
PITTSFIELD     CLOUDY    63  58  84 SE10      29.83F
QUINCY         CLOUDY    61  55  81 SE13      29.82F
ROCKFORD       DRIZZLE   43  40  89 NE14      30.00S FOG
$$


CITY           SKY/WX    TMP DP  RH WIND       PRES   REMARKS
BURLINGTON     CLOUDY    58  55  90 NE9       29.83F
CEDAR RAPIDS   CLOUDY    43  43 100 E15       29.90S FOG
DES MOINES     CLOUDY    43  40  89 NE12      29.91S
KIRKSVILLE     LGT RAIN  50  49  96 N14       29.81F FOG
OTTUMWA        CLOUDY    46  46 100 NE10      29.87F
ST LOUIS       PTSUNNY   65  58  78 SE16      29.82F
$$


CITY           SKY/WX    TMP DP  RH WIND       PRES   REMARKS
TERRE HAUTE    LGT RAIN  68  54  60 S16       29.94F
EVANSVILLE     LGT RAIN  71  51  49 S13G22    29.94S
INDIANAPOLIS   CLOUDY    74  51  44 S14       29.95F
LAFAYETTE      CLOUDY    69  54  58 S7        29.94S
MADISON        CLOUDY    39  37  92 E17G23    30.05S WCI  30
MILWAUKEE      LGT RAIN  39  36  89 NE14      30.08S WCI  31
$$






USA.gov is the U.S. government's official web portal to all federal, state and local government web resources and services.